RH
53 54 52 53 55 56 56 57 57 58 60 59 58 59 62 66 31 37 42 50 70 79 77 76 72 69 72 76 72 76 73 70 71
56 54 53 54 56 54 54 55 56 57 56 54 55 58 62 36 26 30 34 37 57 59 64 74 77 76 71 73 74 76 76 74 74
54 56 56 54 54 53 53 53 54 56 56 54 55 57 59 32 27 31 33 44 57 56 56 58 67 75 78 74 76 75 76 77 75
54 54 52 52 51 51 53 54 54 56 55 54 56 59 61 34 26 28 28 51 55 55 53 54 57 59 67 78 77 78 76 76 76
52 48 55 54 54 53 54 54 56 56 56 57 59 62 62 22 25 26 27 52 55 54 54 53 52 56 59 68 74 79 80 79 79
32 55 56 53 53 52 55 56 56 57 48 48 56 62 25 25 24 25 43 56 55 52 54 54 53 56 65 70 69 78 88 89 85
33 45 51 48 54 50 52 52 49 41 25 25 40 24 24 26 28 26 49 61 57 53 53 55 55 64 71 76 78 79 88 89 86
30 30 31 33 44 30 33 30 27 29 26 26 24 24 26 28 29 36 56 65 59 54 54 54 62 72 75 76 76 85 83 83 76
30 30 35 34 31 32 33 29 26 28 26 24 24 24 27 31 33 37 58 66 64 61 57 54 66 73 74 69 71 77 79 78 80
35 34 34 36 34 32 32 30 27 26 25 24 25 27 27 34 36 34 65 66 70 66 59 57 57 68 69 68 69 72 81 83 82
39 37 37 37 36 34 33 31 29 28 25 26 27 35 36 39 40 37 36 60 71 75 57 55 57 58 58 59 68 74 75 82 85
43 40 41 39 37 36 34 31 29 27 27 28 41 43 43 42 40 40 39 42 71 77 72 67 64 61 59 57 62 74 79 81 84
46 43 41 40 41 39 37 33 33 29 30 41 45 45 45 42 41 41 42 44 41 57 73 77 79 70 66 58 57 68 77 78 81
44 42 41 41 44 41 40 36 37 35 35 45 49 50 50 47 43 45 46 50 51 48 68 72 80 78 72 66 63 81 74 75 78
47 44 43 42 44 41 39 39 36 38 41 43 51 52 53 49 48 46 42 45 46 44 49 49 52 76 72 69 67 86 75 76 75
48 47 46 45 45 42 38 38 41 36 41 38 50 53 52 50 47 44 43 46 44 42 41 43 44 46 68 70 68 64 64 64 66
46 48 48 47 46 43 40 42 41 37 44 45 46 53 51 49 48 46 43 44 43 42 41 40 46 48 48 66 76 72 68 67 65
51 51 49 48 49 45 44 45 50 43 41 47 46 40 41 44 49 52 46 42 39 41 43 43 46 49 48 57 65 77 67 65 65
53 56 52 50 48 47 46 42 45 46 44 44 43 53 48 47 42 45 47 39 37 44 46 42 46 52 54 72 80 77 69 62 62
53 56 59 56 52 50 49 47 46 42 47 47 48 48 47 53 49 42 38 34 38 42 49 49 50 56 57 57 66 66 61 59 58
Wind_Speed
6 7 6 7 7 8 8 8 9 9 10 10 11 11 12 14 6 6 5 7 8 11 11 11 11 11 11 10 11 12 11 11 11
8 7 7 7 8 9 9 9 9 9 9 10 10 10 11 9 7 7 6 6 9 12 12 11 12 13 13 11 11 13 13 13 13
7 8 9 9 9 9 9 9 9 10 10 10 10 10 9 9 7 6 6 5 10 11 11 11 11 12 14 14 13 13 15 15 15
7 7 8 8 8 8 8 9 10 10 10 10 10 10 10 10 5 7 5 6 11 11 10 11 11 12 13 14 15 15 16 17 17
7 6 11 11 11 10 10 10 10 10 9 9 10 11 13 7 7 5 5 10 12 12 11 10 11 12 14 13 13 16 17 17 18
3 6 7 7 7 8 9 10 11 11 7 6 9 11 4 6 5 5 5 11 12 12 11 10 11 12 12 12 13 10 5 11 13
4 2 3 3 6 4 7 7 7 7 6 6 6 5 8 6 5 5 6 11 12 12 11 11 11 8 7 5 6 8 9 6 20
2 3 3 5 3 4 6 6 5 8 7 7 7 8 7 5 5 5 7 11 12 12 11 11 5 3 5 5 6 10 9 8 5
3 3 4 4 5 6 5 5 7 8 8 8 8 9 7 5 4 4 3 11 11 12 11 11 5 7 7 7 7 7 11 10 5
3 3 3 4 5 5 6 6 7 8 9 8 8 8 8 7 4 4 1 8 11 11 10 10 6 7 9 10 10 11 7 10 7
4 4 4 4 4 5 6 7 7 7 8 9 9 7 6 6 5 4 3 3 8 10 7 7 7 8 10 11 9 11 9 7 7
5 4 4 4 4 6 6 6 6 6 6 8 6 5 6 4 3 3 4 2 3 10 11 9 10 11 12 13 11 9 6 7 2
5 4 3 3 4 4 5 5 6 6 6 6 5 4 4 4 4 2 3 3 4 3 10 10 12 13 13 11 14 11 10 7 4
5 3 2 3 3 4 5 5 5 6 7 5 4 4 4 4 4 5 5 6 5 4 6 6 10 14 16 13 8 5 15 10 5
4 3 3 3 3 3 4 5 5 5 6 5 3 4 3 3 4 4 4 5 6 6 5 4 4 10 15 15 14 12 7 6 10
4 3 3 3 3 4 5 4 5 4 7 4 2 0 2 3 3 3 3 5 5 6 5 4 4 4 5 14 14 14 11 8 4
4 4 4 3 3 3 4 4 3 3 5 4 3 2 4 2 1 2 4 5 4 5 5 5 5 4 4 9 15 16 10 6 7
4 4 4 3 3 2 3 3 4 4 2 4 3 3 3 5 2 1 3 5 5 6 5 5 4 3 3 2 8 11 10 10 12
4 4 4 4 2 3 2 1 3 3 3 1 1 1 2 3 3 2 1 3 5 6 4 4 2 1 3 7 11 12 11 12 13
2 3 4 4 3 2 3 3 3 2 3 3 3 2 2 3 3 4 2 2 3 4 5 3 1 2 3 4 7 10 10 9 8
Wind_Direction
35 23 22 25 25 17 15 16 18 15 9 2 358 356 347 313 314 302 311 290 348 306 285 279 272 277 283 268 246 237 220 222 218
27 20 16 19 18 17 16 15 11 8 4 356 354 350 341 326 321 312 310 297 323 303 300 297 282 281 271 268 249 241 233 222 220
45 35 27 19 15 10 11 8 2 358 354 348 346 342 336 303 307 311 301 334 307 299 293 291 290 289 277 269 253 239 233 229 224
40 31 24 21 13 9 7 1 356 352 346 341 338 333 325 298 299 297 292 358 306 299 294 287 284 286 282 274 262 248 234 233 234
41 358 23 9 7 3 1 357 352 344 334 333 333 324 292 291 298 281 288 313 303 300 296 296 293 286 279 277 276 262 254 251 244
14 50 20 16 11 3 358 352 345 332 282 300 323 298 310 304 296 292 1 305 299 298 291 292 294 298 302 286 259 254 278 359 322
347 40 22 19 357 337 342 342 322 304 331 325 293 323 312 308 299 288 324 304 296 292 287 288 293 302 295 273 285 224 221 344 323
350 343 356 348 359 346 336 335 346 336 330 323 320 313 313 306 298 300 310 304 297 290 288 284 296 273 266 280 255 217 236 172 228
340 346 348 341 348 342 342 338 336 330 323 321 316 312 308 303 303 300 324 313 309 300 290 289 239 252 260 272 276 251 226 204 149
320 331 337 342 339 344 337 334 333 329 327 320 315 313 302 303 301 300 63 329 326 308 291 291 256 260 272 283 277 268 241 216 162
304 309 331 340 343 337 330 332 328 321 324 321 324 317 306 303 306 306 304 4 351 337 317 323 321 312 308 288 283 277 236 221 196
294 303 312 345 341 327 326 328 321 326 331 330 332 335 337 320 319 319 327 334 105 23 16 2 341 325 310 298 300 264 258 233 173
275 279 302 336 332 331 329 337 331 340 341 339 349 351 8 5 6 357 354 356 337 118 24 15 6 351 320 305 291 246 261 171 145
272 270 297 312 335 333 327 335 341 335 347 334 349 5 18 32 37 39 39 41 23 2 65 8 24 7 15 3 329 125 222 153 126
276 278 284 300 322 331 330 339 350 344 344 319 334 23 29 29 30 39 42 40 29 23 9 352 32 21 24 17 31 45 86 156 174
286 276 270 278 317 343 332 342 354 4 352 304 245 182 52 57 40 29 26 35 24 12 3 357 345 1 50 28 20 37 39 45 86
305 289 276 283 300 324 336 358 347 19 16 351 290 295 183 154 34 35 11 10 358 355 347 349 352 6 27 35 28 32 21 50 59
311 288 276 260 280 316 338 353 0 357 31 18 343 306 347 330 175 244 358 3 356 345 332 328 344 351 63 49 59 28 34 30 36
315 299 258 249 253 284 332 332 342 325 346 236 81 251 305 326 309 180 308 343 352 355 340 311 322 299 92 82 45 31 29 36 36
236 270 233 227 238 254 276 271 282 296 302 322 322 287 266 233 281 300 316 304 357 2 354 347 16 114 99 93 53 37 32 25 19